Regional Weather Roundup
Issued by NWS Sterling, VA

Home | Current Version | Previous Version | Text Only | Print | Product List | Glossary On
Versions: 1 2 3 4 5 6 7 8 9 10 11 12 13 14 15 16 17 18 19 20 21 22 23 24 25 26 27 28 29 30 31 32 33 34 35 36 37 38 39 40 41 42 43 44 45 46 47 48 49 50
000
ASUS41 KLWX 281210
RWRLWX

REGIONAL WEATHER ROUNDUP
NATIONAL WEATHER SERVICE BALTIMORE MD/WASHINGTON DC
700 AM EST WED JAN 28 2015

Note: "FAIR" indicates few or no clouds below 12,000 feet
with no significant weather and/or obstructions to visibility.
 TC=TEMPERATURE CELSIUS

 * =Non NWS site. Station does not report precipitation (e.g. rain,
    snow, etc.), thunder, or fog.

DCZ001-MDZ009-015-VAZ040>042-051-053>054-281300-
WASHINGTON METRO

CITY           SKY/WX    TMP DP  RH WIND       PRES   REMARKS
WASHINGTON NAT PTCLDY    25   8  48 NW16      30.17R WCI  12
DULLES         CLEAR     20   8  60 NW12      30.16R WCI   8
ANDREWS AFB    CLEAR     21   8  58 NW13      30.13R WCI   9
FT BELVOIR     CLEAR     23   8  52 NW10      30.17R WCI  12
QUANTICO       PTCLDY    24  10  55 N8        30.19R WCI  15
COLLEGE PARK*  CLEAR     23  10  58 N6        30.15R
LEESBURG*      CLEAR     23  12  63 NW15G22   30.17R WCI  10
MANASSAS*      CLEAR     21  12  68 N12G17      N/A  WCI   9
GAITHERSBURG*  CLEAR     18   5  57 NW14      30.16R WCI   4

$$

MDZ006>007-011-014-281300-
BALTIMORE METRO

CITY           SKY/WX    TMP DP  RH WIND       PRES   REMARKS
BWI AIRPORT    PTCLDY    20   5  52 W8        30.13R WCI  10
MD SCIENCE CTR   N/A     22   4  46 MISG      30.14R
MARTIN STATE   CLEAR     21   9  58 W13       30.14R WCI   9
ANNAPOLIS      CLEAR     23   7  50 NW10      30.14R WCI  12
FORT MEADE*    CLEAR     19   9  63 W6        30.17R

$$

MDZ012-015-019>023-281300-
MARYLAND EASTERN SHORE

CITY           SKY/WX    TMP DP  RH WIND       PRES   REMARKS
OCEAN CITY     CLEAR     22   8  55 NW15G23   30.07R WCI   9
SALISBURY      CLEAR     25   7  46 NW14      30.09R WCI  13
BAY BRIDGE AP*   N/A     25   9  50 NW13G20   30.14R WCI  13
CAMBRIDGE*     CLEAR     28  10  47 NW15      30.12R WCI  17
EASTON*        CLEAR     25  10  54 N12G17    30.16R WCI  14

$$

MDZ017>025-281300-
SOUTHERN MARYLAND

CITY           SKY/WX    TMP DP  RH WIND       PRES   REMARKS
PATUXENT RIVER PTCLDY    24  10  55 NW18      30.13R WCI  10
ST INIGOES     CLEAR     24  10  55 NW8       30.13R WCI  15
LEONARDTOWN*   CLEAR     23  10  58 NW8       30.15R WCI  14

$$

MDZ003>005-281300-
NORTH CENTRAL MARYLAND

CITY           SKY/WX    TMP DP  RH WIND       PRES   REMARKS
FREDERICK*     CLEAR     21   1  42 NW6       30.19R
HAGERSTOWN APT CLEAR     16   3  56 NW5       30.17R
WESTMINSTER*   PTCLDY    16   3  57 NW10G17   30.11R WCI   3

$$

MDZ501>502-281300-
WESTERN MARYLAND

CITY           SKY/WX    TMP DP  RH WIND       PRES   REMARKS
OAKLAND*       CLOUDY     9 N/A N/A W3        30.08R HAZE
CUMBERLAND*    CLEAR     21   5  49 NW10      30.25R WCI  10

$$

VAZ025>031-281300-
SHENANDOAH VALLEY

CITY           SKY/WX    TMP DP  RH WIND       PRES   REMARKS
WINCHESTER*    CLEAR     21   7  53 NW12      30.17R WCI   9
FRONT ROYAL*   FAIR      19  10  68 CALM      30.16R
LURAY*         FAIR      23  14  68 SE3       30.16R
NEW MARKET*    FAIR      14  11  87 CALM      30.15R
STAUNTON*      CLEAR     15  11  84 CALM      30.16R
WAYNESBORO*    FAIR      18  11  74 W3        30.12R

$$

WVZ021-048>050-054>055-281300-
EASTERN WEST VIRGINIA PANHANDLE

CITY           SKY/WX    TMP DP  RH WIND       PRES   REMARKS
MARTINSBURG    CLEAR     20   5  52 NW7       30.19R
PETERSBURG*    CLEAR     11   9  92 CALM      30.21R

$$

VAZ036>039-050-281300-
CENTRAL FOOTHILLS

CITY           SKY/WX    TMP DP  RH WIND       PRES   REMARKS
CHARLOTTESVILL CLEAR     27   6  41 NW13G21   30.12R WCI  16
CULPEPER*      CLEAR     21  10  63 N3        30.15R
ORANGE*        CLEAR     19  18  93 CALM      30.15R
GORDONSVILLE*  FAIR      18  15  89 CALM      30.13R
WARRENTON*     FAIR      19  16  86 NE3       30.15R

$$

VAZ055>057-281300-
NORTH AND CENTRAL PIEDMONT

CITY           SKY/WX    TMP DP  RH WIND       PRES   REMARKS
FREDERICKSBRG* CLEAR     25  13  61 N3        30.16R
STAFFORD*      CLEAR     23   8  52 N9G16     30.20R WCI  13

$$

NCZ024-NYZ072-PAZ021-071-VAZ022-071-281300-
OTHER REGIONAL OBSERVATIONS

CITY           SKY/WX    TMP DP  RH WIND       PRES   REMARKS
NEW YORK CITY  CLEAR     17  -2  43 NW9       30.00R WCI   6
PHILADELPHIA   PTCLDY    20  -2  38 NW16      30.07R WCI   6
PITTSBURGH     FLURRIES  11   8  88 W6        30.25R
ROANOKE        CLEAR     23  12  62 NW10      30.19R WCI  12
RICHMOND       CLEAR     25  11  55 N9        30.15R WCI  15
RALEIGH        CLEAR     26  13  57 N3        30.15R

$$

ANZ530>537-281300-
MARINE OBSERVATIONS

STATION/POSITION TIME  TEMP    WIND        PRES
                       AIR SEA DIR/SP/G
                 (UTC) (F)     (DEG/KT/KT) (MB)
THOMAS PT LIGHT  1200   23 36  310/ 11/ 12 1021.7R
BALT KEY BRIDGE  1200   23     290/ 15/ 20 1019.9R
COVE POINT       1200   24     350/ 19/ 24 1019.5R
LEWISETTA        1200   26 36  340/ 14/ 19 1020.3R
SOLOMONS ISLAND  1200      37                N/A
PINEY POINT      1200          340/ 19/ 23   N/A

$$



USA.gov is the U.S. government's official web portal to all federal, state and local government web resources and services.